Tracking 35331 objects as of 16-Sep-2026
HD Live streaming from Space Station
objects crossing your sky now

STARLINK-2092

Track STARLINK-2092 now!
10-day predictions
STARLINK-2092 is classified as:


NORAD ID: 47373
Int'l Code: 2021-005AA
Launch date: January 20, 2021
Source: United States (US)
Launch site: AIR FORCE EASTERN TEST RANGE (AFETR)
Your satellite tracking list
Your tracking list is empty




NASA's NSSDC Master Catalog

Two Line Element Set (TLE):
1 47373U 21005AA  26258.42898356  .00000106  00000-0  15181-4 0  9997
2 47373  53.1599 259.4852 0001282  91.6951 268.4197 15.31704142312109
Source of the keplerian elements: AFSPC